Weather History for Vancouver, WA

Change the Weather History Date:

Monday, February 4, 2013

  Actual Average Record
Temperature  
Mean Temperature 46 °F 43 °F  
Max Temperature 52 °F 50 °F 60 °F (2009)
Min Temperature 39 °F 35 °F 6 °F (1899)
Degree Days  
Heating Degree Days 19    
Month to date heating degree days 88  
Since 1 July heating degree days 2511  
Cooling Degree Days 0    
Month to date cooling degree days 0  
Year to date cooling degree days 0  
Moisture  
Dew Point 40 °F    
Average Humidity 82    
Maximum Humidity 100    
Minimum Humidity 63    
Precipitation  
Precipitation 0.00 in 0.18 in 1.23 in (1926)
Month to date precipitation 0.00 0.71  
Year to date precipitation 3.40 6.21  
Snow  
Snow 0.00 in - - ()
Month to date snowfall 0.0  
Snow Depth 0.00 in    
Sea Level Pressure  
Sea Level Pressure 30.12 in    
Wind  
Wind Speed 1 mph (SSE)    
Max Wind Speed 8 mph    
Max Gust Speed 10 mph    
Visibility 7 miles    
Events      
T = Trace of Precipitation, MM = Missing Value Source: NWS Daily Summary

Daily Weather History Graph

Daily Weather History Graph

Search for Another Location

Airport:

Trip Planner

Search our weather history database for the weather conditions in past years. The results will help you decide how hot, cold, wet, or windy it might be!

Date:

Astronomy

Feb. 04, 2013 Rise Set
Actual Time 7:27 AM PST 5:22 PM PST
Civil Twilight 6:56 AM PST 5:53 PM PST
Nautical Twilight 6:21 AM PST 6:28 PM PST
Astronomical Twilight 5:46 AM PST 7:03 PM PST
Moon 2:13 AM PST (2/4) 11:45 AM PST (2/4)
Length of Visible Light 10h 56m
Length of Day
9h 54m
Last Quarter, 36% of the Moon is Illuminated
Feb 4
Last Quarter
Feb 9
New
Feb 17
First Quarter
Feb 25
Full
Mar 4
Last Quarter

Hourly Weather History & Observations

Time (PST) Temp. Windchill Dew Point Humidity Pressure Visibility Wind Dir Wind Speed Gust Speed Precip Events Conditions
12:26 AM 42.8 °F - 39.2 °F 87% 30.24 in 6.0 mi Calm Calm - N/A   Overcast
12:53 AM 43.0 °F - 39.9 °F 89% 30.24 in 6.0 mi Calm Calm - N/A   Overcast
3:15 AM 42.8 °F - 39.2 °F 87% 30.23 in 5.0 mi Calm Calm - N/A   Overcast
3:53 AM 43.0 °F - 39.9 °F 89% 30.24 in 6.0 mi Calm Calm - N/A   Overcast
4:17 AM 42.8 °F - 39.2 °F 87% 30.22 in 6.0 mi Calm Calm - N/A   Overcast
4:28 AM 42.8 °F - 41.0 °F 93% 30.21 in 6.0 mi Calm Calm - N/A   Overcast
4:39 AM 42.8 °F - 41.0 °F 93% 30.21 in 5.0 mi Calm Calm - N/A   Overcast
4:50 AM 42.8 °F - 41.0 °F 93% 30.21 in 5.0 mi Calm Calm - N/A   Overcast
4:53 AM 42.1 °F - 39.9 °F 92% 30.22 in 5.0 mi Calm Calm - N/A   Overcast
5:53 AM 42.1 °F - 39.9 °F 92% 30.19 in 5.0 mi Calm Calm - N/A   Overcast
6:04 AM 42.8 °F - 39.2 °F 87% 30.20 in 5.0 mi Calm Calm - N/A   Overcast
6:53 AM 39.9 °F - 39.0 °F 97% 30.19 in 3.0 mi Calm Calm - N/A   Mostly Cloudy
7:00 AM 39.2 °F - 37.4 °F 93% 30.18 in 2.5 mi Calm Calm - N/A   Partly Cloudy
7:09 AM 39.2 °F - 37.4 °F 93% 30.18 in 3.0 mi Calm Calm - N/A   Mostly Cloudy
7:53 AM 41.0 °F - 39.0 °F 93% 30.18 in 3.0 mi Calm Calm - N/A   Mostly Cloudy
8:53 AM 44.1 °F - 41.0 °F 89% 30.18 in 7.0 mi Calm Calm - N/A   Overcast
9:53 AM 45.0 °F - 41.0 °F 86% 30.17 in 7.0 mi Calm Calm - N/A   Overcast
10:53 AM 46.0 °F 44.8 °F 42.1 °F 86% 30.16 in 6.0 mi WNW 3.5 mph - N/A   Overcast
11:53 AM 46.9 °F - 42.1 °F 83% 30.13 in 6.0 mi SW 4.6 mph - N/A   Haze
12:53 PM 48.0 °F - 41.0 °F 77% 30.10 in 10.0 mi Calm Calm - N/A   Overcast
1:53 PM 50.0 °F - 39.9 °F 68% 30.08 in 10.0 mi WSW 3.5 mph - N/A   Overcast
2:53 PM 51.1 °F - 39.0 °F 63% 30.04 in 10.0 mi Calm Calm - N/A   Clear
3:53 PM 51.1 °F - 39.0 °F 63% 30.04 in 10.0 mi Calm Calm - N/A   Clear
4:53 PM 51.1 °F - 39.9 °F 66% 30.03 in 10.0 mi Calm Calm - N/A   Partly Cloudy
5:53 PM 48.9 °F - 39.9 °F 71% 30.01 in 10.0 mi Calm Calm - N/A   Scattered Clouds
6:53 PM 46.0 °F 44.8 °F 39.9 °F 79% 29.98 in 10.0 mi East 3.5 mph - N/A   Clear
7:53 PM 46.9 °F - 39.9 °F 77% 29.96 in 10.0 mi ESE 3.5 mph - N/A   Clear
8:53 PM 46.0 °F - 39.0 °F 76% 29.96 in 10.0 mi Calm Calm - N/A   Clear
9:53 PM 45.0 °F - 39.0 °F 80% 29.96 in 10.0 mi Calm Calm - N/A   Clear
10:53 PM 45.0 °F 41.2 °F 39.0 °F 80% 29.96 in 10.0 mi ESE 6.9 mph - N/A   Clear
11:53 PM 43.0 °F 39.5 °F 37.9 °F 82% 29.97 in 10.0 mi SE 5.8 mph - N/A   Clear